SCP
2 2 2 2 1 2 2 2 2 2 2 2 2 2 2 2 3 3 3 4 5 4 3 2 2 2 2 2 2 2 2 3 2 1 2 2 2 2 2 2 2 1 1
2 2 2 2 1 1 2 2 2 3 3 2 2 2 2 2 2 3 3 4 4 3 3 2 2 2 2 2 2 2 3 3 2 2 2 2 2 2 2 2 2 2 1
2 2 2 2 2 2 2 2 3 3 3 3 2 2 2 2 2 2 3 3 3 3 2 2 2 2 2 2 2 2 2 2 3 3 3 2 2 2 2 2 2 2 2
3 3 2 2 2 3 3 3 3 4 4 3 3 3 2 2 2 2 2 2 2 2 2 2 2 2 2 2 2 2 2 2 2 3 3 2 2 2 2 2 1 2 1
5 5 4 4 4 4 4 4 4 4 4 4 4 3 3 2 2 2 2 2 2 2 2 2 2 2 2 2 1 1 1 1 2 2 2 2 2 2 1 1 1 1 1
8 8 9 9 8 7 6 6 5 5 5 6 5 4 3 2 2 1 1 1 2 2 2 2 2 1 1 1 1 1 1 1 1 1 1 1 2 2 1 1 1 1 1
13 13 14 14 13 11 9 8 6 6 6 6 6 5 3 2 1 1 1 1 1 1 2 2 2 1 1 1 1 1 0 1 1 1 1 1 1 2 1 1 1 1 1
16 18 19 19 17 14 11 9 8 7 6 6 7 6 4 2 1 0 0 1 1 1 1 2 2 1 1 1 1 1 1 1 0 0 0 1 1 1 1 1 1 1 1
16 20 23 23 20 18 15 12 10 9 7 7 7 7 5 3 1 0 0 1 1 2 2 2 2 1 1 1 1 1 1 1 1 0 0 0 0 1 1 1 1 1 1
16 20 25 25 22 19 17 14 11 10 8 7 7 7 5 3 1 1 0 1 2 2 2 2 1 1 1 1 1 2 2 2 1 1 1 0 0 1 1 1 1 1 0
16 19 22 20 17 15 14 12 10 9 8 7 7 6 4 2 1 1 1 1 1 2 2 2 2 1 0 0 1 1 2 2 2 2 1 1 1 1 1 1 1 1 1
14 14 13 11 9 9 10 9 8 7 7 6 5 4 3 2 1 1 0 0 1 1 2 2 1 1 0 0 0 1 1 1 2 2 2 2 2 2 1 1 1 1 1
8 7 5 4 5 6 8 8 8 7 6 5 4 3 2 2 1 1 0 0 0 1 1 1 1 0 0 0 0 0 0 1 2 2 2 2 2 2 1 1 1 1 1
5 5 4 3 4 6 7 7 7 6 5 4 3 2 2 2 1 1 1 0 0 0 1 0 0 0 0 0 0 0 1 1 2 2 2 2 2 2 2 2 2 2 2
5 5 4 4 4 5 5 5 5 4 4 3 3 2 2 2 1 1 1 1 0 0 0 0 1 1 1 1 1 1 1 1 1 2 2 2 2 2 2 2 2 2 2
5 5 5 4 4 4 4 3 2 2 1 1 1 1 1 1 0 0 0 0 0 0 0 1 1 1 1 1 2 2 1 1 1 2 2 2 2 2 2 1 1 1 1
4 4 5 4 4 3 3 2 1 1 1 0 0 0 0 0 0 0 0 0 0 0 0 1 2 2 2 1 1 1 1 1 1 1 2 2 2 2 2 1 1 1 1
4 4 4 4 4 3 2 2 2 1 1 1 1 0 0 0 0 0 0 0 0 1 2 2 2 2 2 1 1 1 1 1 1 1 1 2 2 2 2 2 1 1 1
4 4 4 4 4 3 3 2 2 2 2 2 2 1 0 0 0 0 0 0 1 2 2 3 2 1 1 1 1 1 1 1 1 1 1 1 1 1 1 1 1 1 1
5 4 4 4 4 4 3 3 2 2 3 3 3 2 1 1 2 1 1 1 1 1 2 2 1 0 0 1 1 1 1 1 1 1 1 1 1 1 1 1 1 1 1
5 4 4 4 4 4 4 3 3 2 2 3 3 3 2 3 3 3 1 1 1 1 1 0 0 0 0 0 1 1 1 1 1 1 1 1 1 1 1 1 1 1 1
5 5 5 5 5 4 4 3 3 3 2 3 4 4 2 3 4 3 2 1 1 1 1 1 1 1 0 0 0 0 0 0 0 0 0 1 1 1 1 1 1 1 1
5 5 5 5 5 4 4 3 3 3 3 4 5 5 3 3 4 4 2 1 1 1 1 1 1 1 1 1 0 0 0 0 0 0 0 0 0 0 0 1 1 1 1
5 5 5 5 5 5 5 4 3 3 4 4 5 5 4 4 4 3 2 2 1 1 1 2 1 1 1 1 1 1 0 0 0 0 0 0 0 0 0 0 0 1 1
6 6 6 6 5 6 6 5 4 3 4 4 4 4 4 3 3 3 3 2 2 2 2 2 2 1 1 1 1 1 0 0 0 0 0 0 0 0 0 0 1 1 1
6 7 8 7 6 6 6 5 4 3 3 4 4 4 3 3 3 3 3 3 3 2 2 2 2 2 1 1 1 1 0 0 0 0 0 0 0 0 0 0 1 1 1
Wind_Speed
5 4 3 3 3 3 2 2 1 1 1 1 1 1 1 1 1 1 3 2 2 2 2 1 2 3 3 2 2 2 2 2 3 2 1 1 1 2 1 2 2 3 5
5 5 4 4 3 3 2 2 1 1 1 1 1 1 1 1 2 2 2 2 2 2 2 2 2 2 2 3 2 2 2 2 3 3 2 2 2 2 1 2 2 2 3
5 5 5 4 4 3 2 2 2 1 1 0 0 1 1 1 1 2 2 2 2 3 3 3 3 2 3 2 3 2 2 2 2 3 2 1 2 2 2 2 2 1 2
5 5 4 3 3 3 2 2 2 1 1 1 0 1 1 1 1 2 2 2 2 2 3 3 2 2 2 3 2 2 2 2 2 2 2 1 1 2 2 2 2 2 1
5 4 4 3 3 2 2 2 2 1 1 0 1 1 1 1 1 2 3 2 2 2 2 2 1 2 4 3 3 2 2 2 2 2 2 1 1 1 2 2 2 2 2
5 4 4 4 3 3 3 2 2 1 1 1 1 1 1 1 2 2 4 2 1 2 1 1 0 1 1 1 2 3 4 3 3 2 2 2 2 2 2 2 2 2 2
5 4 4 4 4 3 3 2 2 2 1 1 1 1 1 1 2 1 3 3 2 1 1 2 2 2 1 0 1 2 1 1 2 4 4 3 2 2 2 3 2 2 2
5 4 4 4 4 3 3 2 2 2 1 1 1 1 1 1 1 1 3 3 1 1 1 1 2 1 1 1 1 1 2 2 2 4 3 3 3 2 3 3 3 2 2
4 4 4 4 4 3 3 3 2 2 2 2 1 1 1 1 1 1 4 3 1 1 1 1 2 1 2 1 2 2 2 2 2 1 1 1 1 0 1 3 3 3 2
4 4 4 3 3 3 2 2 2 2 2 2 2 1 1 1 2 1 4 3 2 2 1 2 2 1 2 1 3 3 3 3 2 1 2 3 3 3 4 4 4 3 3
4 4 4 3 3 3 2 2 2 2 2 2 2 2 2 1 3 3 3 3 3 3 1 1 2 3 2 2 4 3 3 4 3 2 2 3 3 3 3 3 3 3 3
4 4 4 3 3 2 2 2 2 2 3 2 2 2 2 2 1 3 4 5 6 3 2 1 2 3 3 4 4 2 3 4 4 3 2 2 2 2 2 2 3 3 2
4 4 3 3 2 2 2 2 2 2 2 1 2 2 1 1 2 4 5 5 5 4 2 3 1 3 4 5 6 5 5 4 3 3 2 2 2 2 2 2 3 4 4
4 3 3 3 3 2 2 2 1 1 1 1 1 2 1 1 0 0 2 2 4 4 3 2 5 6 5 3 3 5 4 3 2 3 2 2 2 2 3 2 2 2 3
3 3 3 3 2 2 2 0 1 0 1 2 2 2 2 2 1 2 3 2 3 2 3 3 3 3 3 2 2 2 3 3 3 3 3 2 2 2 2 2 2 3 4
3 3 2 2 2 2 2 2 2 1 2 2 2 3 1 1 2 0 2 2 2 3 4 3 3 3 3 2 3 3 3 3 3 3 3 3 3 3 3 3 3 3 4
2 2 2 1 1 2 2 2 2 3 5 5 5 4 3 1 1 2 2 3 3 3 4 4 3 3 3 3 3 3 3 2 2 3 3 4 4 3 3 3 3 3 4
3 2 2 2 2 2 2 2 2 2 2 3 5 7 6 5 4 4 3 3 3 4 3 3 4 3 3 3 3 3 3 3 2 3 3 3 4 4 4 4 4 5 4
3 2 2 1 2 2 2 2 2 2 2 2 1 4 6 6 6 5 5 4 3 3 3 3 4 3 3 3 3 3 4 3 3 4 3 3 3 4 4 4 4 4 5
2 1 2 2 2 2 2 2 2 2 2 2 2 1 1 2 3 3 4 3 3 3 3 4 3 4 3 3 3 3 4 4 4 4 4 4 4 4 4 5 5 4 4
2 2 4 4 3 2 2 2 2 2 2 2 2 1 0 3 3 2 2 3 3 3 4 4 4 4 3 3 4 4 5 4 4 4 4 4 4 4 4 4 4 5 4
2 2 2 3 2 2 2 2 2 2 2 3 2 0 3 4 3 2 2 2 2 3 3 4 4 3 3 3 4 4 4 3 3 4 4 4 4 4 5 4 4 5 5
3 2 2 2 2 1 3 3 2 2 2 2 2 2 2 3 3 3 2 2 2 3 3 4 4 3 2 3 3 4 4 3 3 4 5 5 5 5 5 5 6 6 6
2 2 2 2 2 2 2 2 3 3 3 2 2 2 2 2 3 3 3 2 3 3 3 3 4 4 4 4 3 3 3 3 4 4 6 6 6 5 5 5 6 7 6
2 2 2 2 2 2 2 2 2 3 3 3 3 3 3 3 3 3 3 3 4 3 4 4 3 3 4 5 4 3 3 3 3 5 5 5 6 6 6 6 6 6 6
2 2 2 2 2 2 2 2 2 3 3 3 3 3 3 3 3 3 3 3 3 3 3 3 4 4 4 4 3 2 1 1 2 5 6 5 5 5 5 5 6 6 6
Wind_Direction
169 172 169 175 182 192 195 216 231 261 275 278 295 297 287 287 280 279 289 288 283 290 281 263 263 296 293 283 260 256 255 260 259 269 272 131 209 277 202 225 200 183 160
164 167 166 170 180 195 189 209 220 232 249 262 288 298 300 308 304 290 290 300 294 293 298 296 280 262 261 277 278 270 270 266 257 256 255 215 207 221 206 221 204 175 160
162 168 164 175 182 194 194 203 207 215 246 267 263 297 304 314 300 292 295 301 304 309 311 307 300 291 277 280 274 274 264 251 250 248 238 224 221 204 195 189 172 143 179
164 168 166 180 187 190 188 197 200 209 218 249 240 265 277 291 296 293 290 305 308 307 311 314 312 302 294 286 267 268 266 265 239 242 238 224 223 202 213 201 173 164 189
169 174 169 174 180 182 178 185 192 208 208 202 232 247 258 244 303 305 282 276 291 297 304 302 341 23 19 340 321 304 280 265 250 243 236 224 207 207 217 220 195 181 180
170 172 166 171 176 181 184 187 190 200 218 206 216 245 277 332 32 337 296 286 278 279 282 294 198 155 107 85 13 4 349 301 292 275 263 259 247 239 224 224 216 209 218
173 171 166 170 175 184 187 179 197 215 221 228 234 252 289 12 39 317 288 287 286 302 305 297 289 72 161 184 149 208 239 304 299 285 281 278 271 253 234 230 231 242 239
175 175 175 179 177 177 184 189 202 218 227 244 257 280 299 39 72 271 273 249 283 308 297 288 298 7 16 340 266 243 246 223 243 254 265 265 262 258 227 230 226 210 217
173 180 179 185 184 184 187 196 205 214 220 223 215 223 251 75 69 287 276 254 242 257 259 266 270 253 76 347 267 267 271 249 172 140 337 330 27 32 242 230 220 212 221
176 179 174 184 189 193 193 204 203 211 221 227 192 195 199 182 136 225 275 272 272 258 222 180 107 22 100 215 255 267 275 284 293 195 199 207 210 191 202 232 233 232 240
169 170 172 177 183 182 185 195 206 215 213 228 210 198 190 187 164 187 248 281 290 276 259 227 121 138 183 223 261 275 290 294 271 247 227 216 202 201 205 213 234 246 248
166 166 166 178 190 167 178 194 208 220 209 210 212 223 188 177 183 189 223 252 294 288 289 303 87 139 196 223 240 269 279 274 267 257 242 230 224 220 219 220 225 242 254
166 168 172 178 186 186 191 195 210 214 232 225 230 237 230 198 164 190 215 233 255 271 304 32 59 202 216 212 214 228 237 247 263 269 263 253 249 241 233 216 221 223 229
171 176 181 188 192 181 209 213 228 241 253 246 255 257 242 220 272 258 236 217 216 234 249 188 197 217 240 263 200 207 227 251 264 265 267 260 256 231 227 230 239 242 240
183 189 196 193 184 185 183 176 251 229 326 281 278 266 263 243 69 360 305 298 304 322 293 255 242 225 222 230 242 238 239 226 228 239 251 247 233 234 237 236 235 245 251
197 201 208 197 186 203 181 169 139 191 153 194 272 295 292 26 96 320 299 301 293 283 275 266 266 269 269 266 262 252 244 252 250 246 246 250 243 237 234 242 243 243 250
212 208 225 220 201 213 211 225 196 181 190 193 198 215 241 246 222 242 259 268 256 241 250 264 269 269 270 274 274 276 274 266 258 250 244 241 243 242 237 235 242 246 252
213 186 221 231 233 233 233 247 251 253 227 207 191 190 200 209 218 227 229 245 234 219 253 276 282 281 277 276 282 288 287 283 269 260 253 248 244 246 249 242 243 248 250
220 214 234 249 247 252 262 263 260 262 272 270 254 171 184 198 204 207 209 247 271 271 272 278 280 285 290 289 289 287 283 281 279 276 269 265 263 261 257 259 257 250 253
220 197 254 253 248 250 260 268 270 267 276 284 279 280 172 220 228 192 214 244 265 276 283 283 285 289 289 287 284 278 274 272 268 264 269 267 261 263 262 262 262 256 253
227 196 217 245 252 261 269 272 278 281 287 291 293 29 231 271 267 255 248 245 259 275 282 281 277 275 277 280 283 281 279 279 278 276 275 273 271 267 265 258 252 254 253
245 233 232 251 253 258 282 279 277 280 287 291 301 233 191 252 269 263 259 260 271 275 278 279 275 278 286 282 284 283 281 288 293 292 289 286 281 273 267 261 256 256 255
248 247 243 243 247 221 248 265 273 279 284 288 288 290 271 283 285 283 279 282 284 283 282 280 281 280 284 285 283 285 284 279 283 291 289 283 280 275 271 264 256 254 251
243 240 245 241 245 252 256 269 276 281 282 281 282 284 281 275 279 285 286 287 285 284 284 286 288 296 300 297 295 290 301 309 294 275 276 279 277 276 270 263 261 259 254
249 243 247 247 245 253 260 274 287 295 299 300 295 291 289 282 280 288 295 299 297 298 298 291 291 293 291 292 304 327 18 0 317 302 278 272 271 274 273 266 262 264 259
257 261 267 264 257 262 264 268 281 290 294 300 300 299 296 293 293 294 296 301 301 299 299 297 303 301 296 289 324 12 29 317 295 290 283 272 270 273 276 270 265 264 261